• In Netherlands
  • List of Countries
  • For 7 days
  • Water Temperature
  • Satellite Maps
  • Weather Map
  • Weather Widgets
  • user-avatar
    Login

    Hourly Weather Vanadzor

    Today, 29 March, Wednesday

    Time Temperature Precipitation Wind Pressure Humidity
    00:00 -3°C° 0 mm 1 mps 633 mmHg 90%
    01:00 -3°C° 0 mm 1 mps 633 mmHg 90%
    02:00 -3°C° 0 mm 1 mps 633 mmHg 90%
    03:00 -4°C° 0 mm 2 mps 633 mmHg 86%
    04:00 -4°C° 0 mm 2 mps 633 mmHg 85%
    05:00 -5°C° 0 mm 2 mps 633 mmHg 84%
    06:00 -5°C° 0 mm 2 mps 633 mmHg 83%
    07:00 -2°C° 0 mm 2 mps 634 mmHg 77%
    08:00 +1°C° 0 mm 2 mps 634 mmHg 72%
    09:00 +4°C° 0 mm 2 mps 635 mmHg 66%
    10:00 +5°C° 0 mm 2 mps 635 mmHg 64%
    11:00 +6°C° 0 mm 2 mps 635 mmHg 62%
    12:00 +7°C° 0 mm 3 mps 636 mmHg 61%
    13:00 +8°C° 0 mm 3 mps 636 mmHg 61%
    14:00 +8°C° 0 mm 3 mps 636 mmHg 60%
    15:00 +8°C° 0 mm 3 mps 635 mmHg 60%
    16:00 +6°C° 0 mm 2 mps 635 mmHg 67%
    17:00 +4°C° 0 mm 2 mps 635 mmHg 73%
    18:00 +4°C° 0 mm 1 mps 635 mmHg 79%
    19:00 +3°C° 0 mm 1 mps 635 mmHg 80%
    20:00 +1°C° 0 mm 1 mps 635 mmHg 81%
    21:00 0°C° 0 mm 1 mps 635 mmHg 82%
    22:00 0°C° 0 mm 1 mps 635 mmHg 82%
    23:00 -1°C° 0 mm 1 mps 635 mmHg 81%

    Tomorrow, 30 March, Thursday

    Time Temperature Precipitation Wind Pressure Humidity
    00:00 -1°C° 0 mm 1 mps 635 mmHg 81%
    01:00 -1°C° 0 mm 1 mps 635 mmHg 81%
    02:00 -2°C° 0 mm 1 mps 635 mmHg 81%
    03:00 -3°C° 0 mm 0 mps 635 mmHg 81%
    04:00 -4°C° 0 mm 0 mps 635 mmHg 82%
    05:00 -4°C° 0 mm 0 mps 635 mmHg 83%
    06:00 -4°C° 0 mm 0 mps 635 mmHg 85%
    07:00 0°C° 0 mm 1 mps 636 mmHg 78%
    08:00 +3°C° 0 mm 1 mps 637 mmHg 71%
    09:00 +6°C° 0 mm 1 mps 638 mmHg 65%
    10:00 +7°C° 0 mm 1 mps 638 mmHg 63%
    11:00 +7°C° 0 mm 2 mps 637 mmHg 60%
    12:00 +9°C° 0 mm 2 mps 637 mmHg 58%
    13:00 +9°C° 0 mm 2 mps 637 mmHg 58%
    14:00 +9°C° 0 mm 2 mps 636 mmHg 58%
    15:00 +9°C° 0 mm 2 mps 636 mmHg 58%
    16:00 +7°C° 0 mm 2 mps 635 mmHg 65%
    17:00 +6°C° 0 mm 1 mps 634 mmHg 73%
    18:00 +4°C° 0 mm 1 mps 633 mmHg 81%
    19:00 +3°C° 0 mm 1 mps 633 mmHg 81%
    20:00 +2°C° 0 mm 1 mps 634 mmHg 81%
    21:00 +1°C° 0 mm 1 mps 634 mmHg 81%
    22:00 +1°C° 0 mm 1 mps 634 mmHg 80%
    23:00 +1°C° 0 mm 1 mps 634 mmHg 79%

    Day after tomorrow, 31 March, Friday

    Time Temperature Precipitation Wind Pressure Humidity
    00:00 +1°C° 0 mm 1 mps 634 mmHg 78%
    01:00 +1°C° 0 mm 1 mps 633 mmHg 78%
    02:00 +1°C° 0 mm 1 mps 633 mmHg 78%
    03:00 +1°C° 0 mm 1 mps 633 mmHg 79%
    04:00 +1°C° 0 mm 1 mps 633 mmHg 79%
    05:00 +1°C° 0 mm 1 mps 633 mmHg 79%
    06:00 +1°C° 0 mm 1 mps 632 mmHg 79%
    07:00 +3°C° 0 mm 1 mps 633 mmHg 73%
    08:00 +6°C° 0 mm 1 mps 634 mmHg 66%
    09:00 +7°C° 0 mm 0 mps 634 mmHg 59%
    10:00 +8°C° 0.2 mm 1 mps 634 mmHg 61%
    11:00 +9°C° 0.2 mm 1 mps 634 mmHg 62%
    12:00 +9°C° 0.2 mm 1 mps 634 mmHg 63%
    13:00 +9°C° 0.5 mm 1 mps 634 mmHg 66%
    14:00 +8°C° 0.5 mm 1 mps 634 mmHg 69%
    15:00 +8°C° 0.5 mm 1 mps 633 mmHg 72%
    16:00 +7°C° 0.3 mm 1 mps 633 mmHg 77%
    17:00 +6°C° 0.3 mm 1 mps 633 mmHg 82%
    18:00 +5°C° 0.3 mm 1 mps 633 mmHg 87%
    19:00 +5°C° 0.1 mm 1 mps 633 mmHg 89%
    20:00 +4°C° 0.1 mm 1 mps 634 mmHg 90%
    21:00 +4°C° 0.1 mm 1 mps 634 mmHg 92%
    22:00 +4°C° 0.1 mm 1 mps 634 mmHg 92%
    23:00 +3°C° 0.1 mm 1 mps 634 mmHg 92%

    1 April, Saturday

    Time Temperature Precipitation Wind Pressure Humidity
    00:00 +3°C° 0.1 mm 1 mps 634 mmHg 91%
    01:00 +3°C° 0.3 mm 1 mps 634 mmHg 92%
    02:00 +2°C° 0.3 mm 1 mps 634 mmHg 93%
    03:00 +2°C° 0.3 mm 1 mps 634 mmHg 94%
    04:00 +2°C° 0.3 mm 1 mps 634 mmHg 95%
    05:00 +2°C° 0.3 mm 1 mps 634 mmHg 95%
    06:00 +1°C° 0.3 mm 2 mps 634 mmHg 95%
    07:00 +1°C° 0.3 mm 2 mps 634 mmHg 93%
    08:00 +2°C° 0.3 mm 2 mps 634 mmHg 91%
    09:00 +3°C° 0.3 mm 2 mps 634 mmHg 89%
    10:00 +3°C° 0.3 mm 2 mps 634 mmHg 87%
    11:00 +4°C° 0.3 mm 2 mps 634 mmHg 86%
    12:00 +4°C° 0.3 mm 2 mps 634 mmHg 84%
    13:00 +5°C° 0.4 mm 1 mps 634 mmHg 85%
    14:00 +5°C° 0.4 mm 1 mps 634 mmHg 86%
    15:00 +5°C° 0.4 mm 1 mps 633 mmHg 87%
    16:00 +4°C° 0.4 mm 1 mps 633 mmHg 89%
    17:00 +4°C° 0.4 mm 1 mps 633 mmHg 92%
    18:00 +3°C° 0.4 mm 1 mps 633 mmHg 95%
    19:00 +2°C° 0.3 mm 1 mps 633 mmHg 95%
    20:00 +1°C° 0.3 mm 0 mps 633 mmHg 96%
    21:00 0°C° 0.3 mm 0 mps 634 mmHg 97%
    22:00 0°C° 0.2 mm 0 mps 633 mmHg 97%
    23:00 0°C° 0.2 mm 0 mps 633 mmHg 97%

    2 April, Sunday

    Time Temperature Precipitation Wind Pressure Humidity
    00:00 +1°C° 0.2 mm 1 mps 633 mmHg 97%
    01:00 0°C° 0.2 mm 1 mps 633 mmHg 97%
    02:00 0°C° 0.2 mm 1 mps 633 mmHg 97%
    03:00 0°C° 0.2 mm 1 mps 633 mmHg 97%
    04:00 0°C° 0.1 mm 1 mps 633 mmHg 96%
    05:00 0°C° 0.1 mm 1 mps 633 mmHg 96%
    06:00 0°C° 0.1 mm 1 mps 633 mmHg 95%
    07:00 +1°C° 0 mm 1 mps 634 mmHg 91%
    08:00 +3°C° 0 mm 1 mps 634 mmHg 87%
    09:00 +5°C° 0 mm 1 mps 635 mmHg 82%
    10:00 +6°C° 0 mm 1 mps 635 mmHg 80%
    11:00 +7°C° 0 mm 1 mps 635 mmHg 77%
    12:00 +8°C° 0 mm 1 mps 635 mmHg 74%
    13:00 +8°C° 0.1 mm 1 mps 635 mmHg 74%
    14:00 +8°C° 0.1 mm 1 mps 635 mmHg 74%
    15:00 +8°C° 0.1 mm 1 mps 635 mmHg 74%
    16:00 +7°C° 0 mm 1 mps 634 mmHg 80%
    17:00 +5°C° 0 mm 1 mps 634 mmHg 86%
    18:00 +4°C° 0 mm 1 mps 634 mmHg 91%
    19:00 +3°C° 0 mm 1 mps 634 mmHg 93%
    20:00 +2°C° 0 mm 1 mps 634 mmHg 95%
    21:00 +1°C° 0 mm 1 mps 634 mmHg 96%
    22:00 +1°C° 0 mm 1 mps 634 mmHg 97%
    23:00 +1°C° 0 mm 1 mps 635 mmHg 97%

    3 April, Monday

    Time Temperature Precipitation Wind Pressure Humidity
    00:00 +1°C° 0 mm 1 mps 635 mmHg 98%
    01:00 +1°C° 0.1 mm 1 mps 635 mmHg 97%
    02:00 +1°C° 0.1 mm 1 mps 636 mmHg 97%
    03:00 +1°C° 0.1 mm 1 mps 636 mmHg 97%
    04:00 +1°C° 0.2 mm 1 mps 636 mmHg 96%
    05:00 +1°C° 0.2 mm 1 mps 636 mmHg 96%
    06:00 +1°C° 0.2 mm 1 mps 637 mmHg 96%
    07:00 +2°C° 0.2 mm 1 mps 637 mmHg 92%
    08:00 +2°C° 0.2 mm 1 mps 637 mmHg 88%
    09:00 +2°C° 0.2 mm 2 mps 637 mmHg 84%
    10:00 +3°C° 0.2 mm 2 mps 637 mmHg 82%
    11:00 +3°C° 0.2 mm 2 mps 637 mmHg 80%
    12:00 +4°C° 0.2 mm 2 mps 637 mmHg 77%
    13:00 +4°C° 0.2 mm 2 mps 637 mmHg 77%
    14:00 +4°C° 0.2 mm 2 mps 637 mmHg 77%
    15:00 +4°C° 0.2 mm 2 mps 636 mmHg 77%
    16:00 +5°C° 0.1 mm 1 mps 636 mmHg 81%
    17:00 +4°C° 0.1 mm 1 mps 636 mmHg 85%
    18:00 +3°C° 0.1 mm 1 mps 636 mmHg 89%
    19:00 +2°C° 0 mm 1 mps 636 mmHg 91%
    20:00 0°C° 0 mm 1 mps 636 mmHg 94%
    21:00 -1°C° 0 mm 1 mps 636 mmHg 96%
    22:00 -2°C° 0 mm 0 mps 636 mmHg 96%
    23:00 -3°C° 0 mm 0 mps 636 mmHg 96%
    Show more